sat.trackr.live / text

‹ back to catalog

CENTISPACE-2 S4

NORAD 68353 · 2026-060D

PAYLOAD ACTIVE UNKNOWN

§ Identity

Operator
Country
PRC
Launch date
2026-03-22
Launch site
YSLA
Launch vehicle
Mass (kg)
RCS (m²)

External: N2YO · Heavens-Above · Gunter

§ Orbital elements

Epoch: 2026-05-25T09:01:24.915648Z

Period
97.74 min
Inclination
54.9822°
Eccentricity
0.0010263
Mean motion
14.73265046 rev/d
Perigee alt
643.5 km
Apogee alt
657.9 km
Semi-major
7,028.8 km
B*
2.5585e-5
RAAN
129.0936°
Arg perigee
91.8449°
Mean anomaly
268.3725°
Rev number
940

§ Raw data

CENTISPACE-2 S41 68353U 26060D   26145.37598282 -.00000039  00000+0  25585-4 0  99922 68353  54.9822 129.0936 0010263  91.8449 268.3725 14.73265046  9408

JSON: /api/v1/satellites/68353 · /tle

For live sub-satellite position, see the globe view (requires WebGL).

§ Visibility from observer

Set your observer location to see the next 7 days of passes ≥ 10°. The values pass through the URL so the page stays shareable.

No JS? Fill the form by hand. The geolocation button needs JavaScript.